QPF
0.01 0.01 0.01 0.00 0.00 0.00 0.00 0.01 0.00 0.00 0.00 0.00 0.00 0.01 0.01 0.01 0.01 0.01 0.01 0.01 0.02 0.01 0.01 0.00 0.01 0.01 0.02 0.03 0.03 0.03 0.02 0.02 0.01 0.01 0.01 0.01 0.01 0.01 0.01 0.02 0.01 0.02 0.04 0.03
0.00 0.00 0.00 0.00 0.00 0.00 0.00 0.01 0.00 0.01 0.01 0.01 0.01 0.01 0.01 0.01 0.01 0.01 0.00 0.01 0.01 0.01 0.01 0.00 0.00 0.01 0.01 0.01 0.02 0.03 0.03 0.02 0.01 0.02 0.01 0.01 0.01 0.02 0.02 0.03 0.03 0.04 0.05 0.05
0.00 0.00 0.00 0.00 0.00 0.00 0.00 0.01 0.01 0.01 0.01 0.01 0.02 0.02 0.02 0.01 0.01 0.00 0.00 0.00 0.00 0.01 0.01 0.01 0.01 0.01 0.01 0.01 0.01 0.02 0.03 0.03 0.02 0.03 0.02 0.01 0.02 0.03 0.04 0.05 0.07 0.07 0.07 0.06
0.00 0.00 0.00 0.00 0.00 0.00 0.00 0.01 0.01 0.01 0.01 0.01 0.02 0.02 0.01 0.01 0.01 0.00 0.00 0.00 0.01 0.01 0.02 0.02 0.01 0.01 0.01 0.01 0.02 0.02 0.03 0.04 0.04 0.03 0.03 0.02 0.03 0.04 0.05 0.07 0.08 0.09 0.09 0.09
0.00 0.00 0.00 0.00 0.00 0.00 0.00 0.01 0.01 0.01 0.01 0.01 0.01 0.01 0.01 0.01 0.01 0.00 0.01 0.01 0.01 0.01 0.02 0.02 0.02 0.02 0.01 0.02 0.03 0.04 0.04 0.04 0.04 0.04 0.03 0.03 0.05 0.07 0.10 0.13 0.14 0.14 0.13 0.11
0.00 0.00 0.00 0.01 0.01 0.00 0.01 0.01 0.01 0.01 0.01 0.01 0.01 0.00 0.00 0.01 0.00 0.00 0.01 0.01 0.02 0.03 0.02 0.01 0.01 0.02 0.02 0.02 0.02 0.02 0.02 0.03 0.04 0.04 0.04 0.06 0.09 0.10 0.12 0.12 0.10 0.09 0.07 0.06
0.00 0.00 0.00 0.00 0.00 0.01 0.01 0.01 0.01 0.01 0.01 0.01 0.01 0.01 0.00 0.01 0.01 0.01 0.01 0.02 0.03 0.03 0.02 0.01 0.01 0.01 0.01 0.01 0.01 0.01 0.01 0.03 0.03 0.04 0.05 0.08 0.09 0.09 0.10 0.09 0.07 0.05 0.05 0.04
0.00 0.00 0.00 0.00 0.00 0.00 0.01 0.01 0.01 0.01 0.01 0.01 0.01 0.01 0.01 0.02 0.02 0.02 0.02 0.03 0.03 0.02 0.02 0.02 0.01 0.01 0.01 0.01 0.01 0.01 0.02 0.02 0.02 0.02 0.03 0.04 0.05 0.04 0.04 0.04 0.03 0.03 0.04 0.04
0.00 0.00 0.01 0.01 0.00 0.01 0.01 0.01 0.01 0.01 0.01 0.01 0.01 0.01 0.02 0.02 0.03 0.04 0.05 0.05 0.04 0.03 0.03 0.02 0.02 0.02 0.02 0.02 0.02 0.02 0.01 0.01 0.01 0.02 0.02 0.02 0.02 0.02 0.02 0.03 0.02 0.02 0.02 0.02
0.00 0.00 0.00 0.01 0.00 0.01 0.01 0.01 0.01 0.01 0.02 0.02 0.03 0.03 0.03 0.03 0.04 0.06 0.05 0.04 0.03 0.03 0.03 0.03 0.02 0.02 0.02 0.02 0.01 0.01 0.01 0.01 0.01 0.01 0.01 0.01 0.01 0.02 0.02 0.02 0.02 0.01 0.01 0.01
0.00 0.00 0.01 0.00 0.00 0.00 0.00 0.01 0.01 0.02 0.04 0.05 0.05 0.04 0.04 0.05 0.05 0.07 0.07 0.05 0.04 0.04 0.04 0.04 0.03 0.02 0.02 0.02 0.01 0.01 0.01 0.01 0.01 0.01 0.01 0.02 0.02 0.03 0.03 0.03 0.03 0.02 0.02 0.02
0.01 0.01 0.01 0.00 0.00 0.00 0.00 0.01 0.01 0.02 0.03 0.04 0.04 0.04 0.04 0.05 0.05 0.06 0.06 0.05 0.04 0.04 0.04 0.03 0.02 0.03 0.03 0.02 0.02 0.02 0.01 0.02 0.02 0.02 0.02 0.02 0.03 0.03 0.03 0.04 0.05 0.06 0.05 0.05
0.01 0.01 0.01 0.01 0.01 0.01 0.01 0.01 0.01 0.01 0.03 0.04 0.03 0.03 0.03 0.02 0.02 0.03 0.04 0.03 0.03 0.03 0.03 0.02 0.02 0.02 0.03 0.03 0.02 0.03 0.03 0.03 0.03 0.03 0.03 0.03 0.03 0.03 0.04 0.06 0.07 0.08 0.08 0.08
0.01 0.01 0.01 0.01 0.01 0.00 0.01 0.01 0.01 0.02 0.03 0.04 0.03 0.03 0.03 0.02 0.01 0.01 0.02 0.03 0.03 0.03 0.03 0.02 0.02 0.01 0.02 0.02 0.03 0.04 0.03 0.03 0.02 0.02 0.03 0.03 0.04 0.05 0.07 0.08 0.09 0.09 0.09 0.07
0.01 0.01 0.02 0.01 0.01 0.00 0.00 0.01 0.01 0.02 0.04 0.07 0.07 0.05 0.04 0.03 0.02 0.02 0.02 0.02 0.03 0.04 0.03 0.02 0.02 0.02 0.02 0.03 0.04 0.04 0.04 0.04 0.04 0.04 0.04 0.04 0.04 0.05 0.07 0.08 0.08 0.07 0.05 0.05
0.02 0.02 0.02 0.01 0.01 0.01 0.01 0.02 0.02 0.02 0.03 0.05 0.08 0.08 0.07 0.06 0.05 0.03 0.03 0.03 0.03 0.04 0.04 0.04 0.03 0.03 0.03 0.03 0.04 0.04 0.04 0.05 0.06 0.05 0.04 0.04 0.03 0.03 0.05 0.06 0.07 0.07 0.06 0.06
0.02 0.01 0.01 0.01 0.01 0.01 0.01 0.01 0.01 0.02 0.02 0.02 0.03 0.04 0.04 0.04 0.04 0.04 0.04 0.04 0.03 0.03 0.03 0.04 0.05 0.05 0.04 0.04 0.05 0.05 0.05 0.05 0.06 0.05 0.04 0.03 0.02 0.03 0.04 0.05 0.08 0.09 0.08 0.07
0.01 0.01 0.01 0.01 0.01 0.01 0.00 0.01 0.01 0.01 0.02 0.02 0.01 0.01 0.02 0.03 0.03 0.03 0.02 0.03 0.02 0.02 0.02 0.03 0.04 0.06 0.07 0.06 0.06 0.06 0.06 0.06 0.05 0.04 0.04 0.03 0.03 0.03 0.04 0.04 0.05 0.06 0.07 0.06
0.01 0.00 0.00 0.01 0.01 0.01 0.01 0.01 0.02 0.02 0.02 0.02 0.02 0.02 0.02 0.02 0.03 0.03 0.03 0.03 0.02 0.02 0.02 0.02 0.04 0.06 0.06 0.05 0.04 0.03 0.04 0.04 0.05 0.04 0.03 0.03 0.03 0.02 0.02 0.03 0.03 0.03 0.03 0.03
0.01 0.01 0.01 0.01 0.01 0.02 0.02 0.02 0.02 0.02 0.03 0.03 0.03 0.03 0.03 0.03 0.03 0.03 0.02 0.02 0.02 0.03 0.04 0.05 0.05 0.05 0.05 0.04 0.04 0.04 0.04 0.04 0.03 0.02 0.02 0.02 0.02 0.01 0.01 0.02 0.02 0.02 0.02 0.01
0.01 0.01 0.01 0.02 0.02 0.04 0.05 0.04 0.03 0.03 0.03 0.03 0.04 0.04 0.04 0.04 0.03 0.02 0.02 0.03 0.03 0.04 0.05 0.07 0.06 0.06 0.05 0.04 0.04 0.03 0.03 0.03 0.03 0.02 0.02 0.02 0.02 0.02 0.02 0.02 0.02 0.02 0.01 0.01
0.01 0.01 0.01 0.02 0.03 0.04 0.06 0.05 0.05 0.04 0.03 0.02 0.03 0.03 0.03 0.03 0.03 0.04 0.06 0.06 0.06 0.06 0.05 0.06 0.06 0.06 0.05 0.04 0.03 0.03 0.02 0.02 0.02 0.02 0.02 0.02 0.02 0.03 0.02 0.02 0.02 0.01 0.01 0.01
0.01 0.01 0.01 0.02 0.02 0.04 0.05 0.05 0.05 0.04 0.04 0.02 0.02 0.02 0.02 0.02 0.03 0.04 0.06 0.06 0.06 0.06 0.05 0.06 0.06 0.05 0.04 0.03 0.03 0.02 0.02 0.02 0.01 0.01 0.01 0.02 0.02 0.03 0.03 0.02 0.02 0.01 0.01 0.02
0.02 0.02 0.02 0.02 0.02 0.04 0.05 0.04 0.04 0.04 0.03 0.02 0.02 0.02 0.02 0.01 0.02 0.02 0.03 0.04 0.04 0.03 0.03 0.04 0.04 0.03 0.02 0.02 0.02 0.02 0.02 0.01 0.01 0.01 0.01 0.01 0.01 0.02 0.02 0.02 0.02 0.01 0.01 0.01
0.05 0.04 0.03 0.03 0.03 0.03 0.03 0.03 0.03 0.03 0.03 0.02 0.02 0.02 0.02 0.02 0.02 0.02 0.02 0.03 0.03 0.03 0.02 0.01 0.02 0.01 0.01 0.01 0.01 0.01 0.01 0.01 0.02 0.02 0.01 0.01 0.01 0.02 0.02 0.02 0.02 0.02 0.02 0.02
0.05 0.04 0.03 0.03 0.03 0.02 0.02 0.02 0.02 0.02 0.02 0.01 0.01 0.01 0.01 0.01 0.01 0.01 0.03 0.04 0.02 0.01 0.01 0.01 0.01 0.01 0.01 0.01 0.01 0.01 0.01 0.01 0.01 0.01 0.01 0.02 0.02 0.02 0.02 0.02 0.03 0.03 0.04 0.04
0.04 0.03 0.02 0.03 0.03 0.02 0.02 0.02 0.02 0.02 0.01 0.01 0.01 0.00 0.00 0.01 0.01 0.02 0.03 0.03 0.01 0.01 0.00 0.00 0.00 0.00 0.00 0.00 0.01 0.01 0.01 0.01 0.01 0.01 0.01 0.02 0.02 0.01 0.01 0.02 0.02 0.03 0.03 0.03
MSLP
1015.00 1015.31 1015.65 1015.99 1016.29 1016.46 1016.47 1016.25 1015.79 1015.09 1014.19 1013.15 1012.04 1010.95 1009.95 1009.09 1008.41 1007.90 1007.55 1007.34 1007.21 1007.13 1007.08 1007.05 1007.04 1007.05 1007.11 1007.22 1007.40 1007.63 1007.90 1008.20 1008.49 1008.75 1008.98 1009.16 1009.31 1009.44 1009.58 1009.75 1009.96 1010.23 1010.57 1010.95
1015.43 1015.72 1015.99 1016.22 1016.38 1016.41 1016.30 1016.00 1015.52 1014.86 1014.06 1013.15 1012.19 1011.23 1010.33 1009.51 1008.80 1008.20 1007.70 1007.30 1006.97 1006.71 1006.50 1006.36 1006.29 1006.29 1006.37 1006.53 1006.77 1007.05 1007.36 1007.68 1007.96 1008.20 1008.40 1008.54 1008.66 1008.77 1008.91 1009.08 1009.32 1009.62 1010.00 1010.43
1015.91 1016.16 1016.36 1016.48 1016.51 1016.43 1016.22 1015.87 1015.38 1014.77 1014.05 1013.26 1012.42 1011.57 1010.73 1009.92 1009.15 1008.43 1007.77 1007.17 1006.64 1006.19 1005.82 1005.57 1005.42 1005.40 1005.50 1005.71 1005.99 1006.32 1006.67 1007.00 1007.28 1007.51 1007.68 1007.81 1007.92 1008.03 1008.17 1008.38 1008.66 1009.02 1009.45 1009.94
1016.42 1016.60 1016.71 1016.72 1016.64 1016.46 1016.17 1015.78 1015.29 1014.72 1014.08 1013.38 1012.64 1011.86 1011.05 1010.22 1009.38 1008.54 1007.72 1006.94 1006.22 1005.59 1005.08 1004.72 1004.51 1004.46 1004.56 1004.79 1005.11 1005.47 1005.85 1006.19 1006.47 1006.70 1006.86 1006.99 1007.10 1007.24 1007.42 1007.68 1008.02 1008.44 1008.95 1009.51
1016.85 1016.94 1016.94 1016.85 1016.67 1016.40 1016.05 1015.63 1015.15 1014.62 1014.03 1013.40 1012.72 1011.98 1011.19 1010.34 1009.43 1008.49 1007.54 1006.61 1005.74 1004.97 1004.35 1003.89 1003.63 1003.55 1003.64 1003.88 1004.21 1004.58 1004.96 1005.31 1005.60 1005.83 1006.00 1006.15 1006.29 1006.46 1006.70 1007.03 1007.44 1007.94 1008.51 1009.14
1017.12 1017.09 1016.97 1016.77 1016.49 1016.15 1015.76 1015.32 1014.85 1014.35 1013.82 1013.24 1012.61 1011.90 1011.12 1010.25 1009.30 1008.29 1007.25 1006.23 1005.26 1004.40 1003.69 1003.17 1002.86 1002.74 1002.81 1003.03 1003.36 1003.73 1004.11 1004.46 1004.75 1005.00 1005.20 1005.38 1005.57 1005.80 1006.11 1006.50 1006.98 1007.55 1008.18 1008.86
1017.13 1016.96 1016.71 1016.41 1016.06 1015.66 1015.24 1014.81 1014.36 1013.89 1013.40 1012.87 1012.28 1011.62 1010.85 1009.99 1009.04 1008.00 1006.93 1005.86 1004.84 1003.93 1003.18 1002.62 1002.26 1002.11 1002.15 1002.34 1002.63 1002.99 1003.36 1003.71 1004.02 1004.29 1004.53 1004.77 1005.02 1005.33 1005.70 1006.16 1006.70 1007.31 1007.98 1008.68
1016.86 1016.54 1016.18 1015.79 1015.38 1014.95 1014.53 1014.10 1013.68 1013.26 1012.82 1012.35 1011.81 1011.19 1010.47 1009.64 1008.71 1007.70 1006.63 1005.57 1004.55 1003.63 1002.85 1002.26 1001.87 1001.68 1001.67 1001.81 1002.07 1002.40 1002.75 1003.11 1003.44 1003.76 1004.06 1004.37 1004.70 1005.08 1005.51 1006.02 1006.60 1007.23 1007.90 1008.58
1016.32 1015.88 1015.43 1014.97 1014.52 1014.09 1013.68 1013.29 1012.92 1012.55 1012.17 1011.75 1011.27 1010.71 1010.05 1009.28 1008.41 1007.45 1006.43 1005.40 1004.41 1003.50 1002.72 1002.11 1001.68 1001.43 1001.36 1001.45 1001.66 1001.95 1002.30 1002.66 1003.04 1003.42 1003.79 1004.18 1004.59 1005.04 1005.53 1006.07 1006.66 1007.28 1007.91 1008.55
1015.62 1015.08 1014.56 1014.07 1013.61 1013.20 1012.82 1012.48 1012.16 1011.85 1011.53 1011.18 1010.77 1010.28 1009.68 1008.99 1008.19 1007.30 1006.36 1005.38 1004.43 1003.54 1002.76 1002.11 1001.63 1001.32 1001.18 1001.20 1001.35 1001.61 1001.94 1002.33 1002.76 1003.20 1003.66 1004.14 1004.63 1005.15 1005.68 1006.24 1006.81 1007.39 1007.97 1008.53
1014.87 1014.28 1013.72 1013.22 1012.77 1012.39 1012.05 1011.76 1011.51 1011.26 1011.00 1010.71 1010.36 1009.94 1009.42 1008.80 1008.08 1007.28 1006.40 1005.49 1004.57 1003.70 1002.90 1002.21 1001.67 1001.28 1001.06 1001.00 1001.08 1001.30 1001.63 1002.04 1002.51 1003.03 1003.58 1004.15 1004.72 1005.29 1005.86 1006.42 1006.96 1007.48 1007.98 1008.46
1014.22 1013.59 1013.03 1012.52 1012.10 1011.75 1011.46 1011.22 1011.01 1010.81 1010.60 1010.37 1010.08 1009.71 1009.26 1008.71 1008.07 1007.33 1006.52 1005.66 1004.77 1003.89 1003.07 1002.33 1001.71 1001.24 1000.92 1000.77 1000.79 1000.97 1001.28 1001.71 1002.23 1002.82 1003.44 1004.09 1004.73 1005.36 1005.95 1006.50 1007.01 1007.47 1007.90 1008.29
1013.73 1013.10 1012.52 1012.03 1011.63 1011.30 1011.04 1010.83 1010.65 1010.48 1010.31 1010.11 1009.86 1009.55 1009.15 1008.67 1008.09 1007.41 1006.66 1005.83 1004.96 1004.08 1003.22 1002.42 1001.72 1001.15 1000.74 1000.50 1000.45 1000.57 1000.86 1001.30 1001.85 1002.49 1003.18 1003.89 1004.59 1005.25 1005.86 1006.40 1006.89 1007.31 1007.68 1008.01
1013.44 1012.80 1012.22 1011.73 1011.33 1011.00 1010.75 1010.54 1010.37 1010.22 1010.06 1009.88 1009.66 1009.38 1009.03 1008.60 1008.07 1007.46 1006.74 1005.95 1005.09 1004.20 1003.31 1002.46 1001.68 1001.02 1000.51 1000.19 1000.06 1000.13 1000.39 1000.81 1001.38 1002.05 1002.78 1003.53 1004.26 1004.95 1005.57 1006.12 1006.58 1006.98 1007.32 1007.62
1013.32 1012.66 1012.07 1011.56 1011.14 1010.79 1010.51 1010.29 1010.10 1009.93 1009.77 1009.60 1009.39 1009.14 1008.83 1008.45 1007.98 1007.41 1006.75 1005.99 1005.16 1004.27 1003.35 1002.46 1001.62 1000.89 1000.31 999.90 999.70 999.71 999.92 1000.32 1000.88 1001.55 1002.28 1003.05 1003.80 1004.50 1005.13 1005.68 1006.14 1006.54 1006.87 1007.18
1013.30 1012.61 1011.99 1011.44 1010.97 1010.58 1010.26 1010.00 1009.77 1009.58 1009.40 1009.22 1009.03 1008.81 1008.54 1008.20 1007.79 1007.28 1006.68 1005.97 1005.17 1004.30 1003.39 1002.48 1001.61 1000.83 1000.19 999.73 999.46 999.41 999.58 999.93 1000.45 1001.09 1001.81 1002.57 1003.31 1004.00 1004.63 1005.19 1005.66 1006.07 1006.43 1006.76
1013.31 1012.59 1011.91 1011.31 1010.78 1010.33 1009.95 1009.63 1009.37 1009.14 1008.94 1008.76 1008.58 1008.39 1008.16 1007.88 1007.53 1007.09 1006.56 1005.91 1005.17 1004.35 1003.47 1002.58 1001.71 1000.92 1000.25 999.75 999.44 999.34 999.45 999.75 1000.22 1000.82 1001.50 1002.21 1002.93 1003.60 1004.22 1004.77 1005.26 1005.68 1006.07 1006.45
1013.31 1012.53 1011.80 1011.14 1010.54 1010.03 1009.59 1009.22 1008.91 1008.65 1008.44 1008.26 1008.10 1007.94 1007.76 1007.54 1007.26 1006.90 1006.44 1005.88 1005.21 1004.46 1003.65 1002.80 1001.98 1001.21 1000.55 1000.04 999.72 999.58 999.65 999.90 1000.31 1000.84 1001.46 1002.12 1002.79 1003.43 1004.02 1004.55 1005.04 1005.48 1005.89 1006.30
1013.25 1012.43 1011.65 1010.93 1010.28 1009.71 1009.22 1008.81 1008.47 1008.19 1007.98 1007.80 1007.67 1007.54 1007.41 1007.25 1007.04 1006.76 1006.39 1005.91 1005.34 1004.68 1003.95 1003.19 1002.44 1001.73 1001.12 1000.64 1000.32 1000.17 1000.21 1000.41 1000.77 1001.24 1001.79 1002.38 1002.98 1003.57 1004.11 1004.62 1005.08 1005.52 1005.93 1006.35
1013.17 1012.31 1011.50 1010.74 1010.06 1009.45 1008.93 1008.49 1008.13 1007.85 1007.64 1007.48 1007.36 1007.27 1007.18 1007.08 1006.93 1006.72 1006.43 1006.04 1005.57 1005.01 1004.39 1003.73 1003.07 1002.46 1001.91 1001.49 1001.20 1001.07 1001.10 1001.28 1001.58 1001.99 1002.47 1002.99 1003.52 1004.04 1004.53 1004.98 1005.40 1005.81 1006.20 1006.59
1013.07 1012.21 1011.38 1010.62 1009.92 1009.30 1008.77 1008.33 1007.97 1007.68 1007.47 1007.33 1007.23 1007.16 1007.11 1007.04 1006.94 1006.79 1006.57 1006.27 1005.89 1005.43 1004.92 1004.37 1003.83 1003.32 1002.87 1002.52 1002.29 1002.19 1002.23 1002.39 1002.67 1003.02 1003.44 1003.89 1004.34 1004.78 1005.19 1005.58 1005.94 1006.29 1006.63 1006.97
1012.99 1012.15 1011.35 1010.60 1009.91 1009.30 1008.78 1008.34 1007.99 1007.71 1007.51 1007.37 1007.28 1007.23 1007.19 1007.14 1007.07 1006.96 1006.79 1006.56 1006.26 1005.90 1005.49 1005.06 1004.63 1004.23 1003.88 1003.62 1003.46 1003.42 1003.48 1003.64 1003.89 1004.20 1004.56 1004.94 1005.32 1005.68 1006.01 1006.32 1006.61 1006.88 1007.16 1007.44
1012.95 1012.16 1011.40 1010.68 1010.03 1009.45 1008.95 1008.52 1008.18 1007.91 1007.71 1007.57 1007.47 1007.42 1007.38 1007.33 1007.28 1007.19 1007.06 1006.88 1006.64 1006.36 1006.05 1005.72 1005.40 1005.11 1004.86 1004.69 1004.60 1004.60 1004.69 1004.86 1005.10 1005.38 1005.69 1006.00 1006.31 1006.59 1006.85 1007.08 1007.29 1007.49 1007.70 1007.91
1012.94 1012.21 1011.50 1010.84 1010.23 1009.69 1009.21 1008.80 1008.47 1008.20 1007.99 1007.84 1007.74 1007.67 1007.61 1007.56 1007.51 1007.43 1007.32 1007.18 1006.99 1006.78 1006.55 1006.31 1006.08 1005.88 1005.72 1005.63 1005.60 1005.65 1005.77 1005.94 1006.16 1006.41 1006.68 1006.93 1007.18 1007.40 1007.59 1007.75 1007.90 1008.04 1008.18 1008.34
1012.92 1012.26 1011.63 1011.02 1010.46 1009.95 1009.49 1009.10 1008.77 1008.50 1008.28 1008.11 1007.99 1007.90 1007.83 1007.77 1007.71 1007.64 1007.55 1007.43 1007.29 1007.13 1006.96 1006.79 1006.64 1006.51 1006.42 1006.38 1006.41 1006.48 1006.61 1006.78 1006.99 1007.21 1007.43 1007.65 1007.84 1008.01 1008.15 1008.27 1008.37 1008.47 1008.57 1008.69
1012.85 1012.27 1011.70 1011.14 1010.62 1010.14 1009.71 1009.32 1008.99 1008.71 1008.49 1008.31 1008.17 1008.07 1007.99 1007.92 1007.86 1007.79 1007.71 1007.62 1007.51 1007.39 1007.27 1007.15 1007.05 1006.97 1006.93 1006.93 1006.98 1007.07 1007.20 1007.36 1007.54 1007.73 1007.92 1008.10 1008.26 1008.39 1008.50 1008.60 1008.68 1008.77 1008.86 1008.98
1012.70 1012.18 1011.66 1011.15 1010.67 1010.21 1009.79 1009.42 1009.08 1008.80 1008.57 1008.38 1008.24 1008.13 1008.04 1007.98 1007.92 1007.87 1007.81 1007.74 1007.66 1007.57 1007.49 1007.40 1007.34 1007.29 1007.27 1007.28 1007.33 1007.42 1007.54 1007.68 1007.84 1008.00 1008.17 1008.32 1008.46 1008.58 1008.69 1008.78 1008.88 1008.97 1009.09 1009.23
Thickness
5758 5765 5765 5764 5765 5763 5757 5752 5745 5751 5753 5765 5771 5773 5777 5779 5779 5778 5778 5778 5777 5775 5773 5771 5769 5767 5765 5762 5760 5757 5753 5749 5746 5745 5742 5739 5736 5733 5730 5727 5725 5722 5719 5717
5751 5759 5759 5755 5759 5759 5757 5755 5752 5753 5754 5768 5771 5771 5771 5771 5772 5771 5772 5773 5771 5769 5767 5765 5763 5761 5759 5756 5754 5751 5748 5745 5742 5739 5736 5733 5730 5726 5723 5721 5718 5715 5713 5710
5731 5743 5748 5736 5749 5751 5751 5753 5751 5746 5752 5761 5761 5763 5764 5764 5765 5766 5767 5767 5765 5763 5761 5759 5758 5756 5753 5751 5748 5744 5742 5739 5736 5733 5730 5727 5724 5719 5716 5713 5710 5708 5706 5703
5717 5728 5717 5734 5754 5754 5749 5748 5751 5751 5753 5755 5758 5761 5763 5762 5761 5761 5762 5761 5759 5757 5755 5754 5752 5749 5747 5744 5741 5738 5734 5732 5729 5726 5723 5720 5717 5713 5710 5707 5704 5701 5699 5696
5704 5706 5714 5733 5745 5745 5740 5738 5747 5745 5748 5750 5753 5754 5755 5759 5758 5757 5758 5757 5755 5753 5751 5748 5746 5743 5739 5735 5732 5729 5726 5723 5721 5718 5715 5712 5709 5706 5703 5699 5696 5694 5691 5688
5698 5701 5698 5722 5743 5749 5739 5726 5741 5741 5739 5740 5742 5733 5740 5751 5752 5751 5752 5751 5749 5747 5744 5741 5739 5736 5732 5727 5724 5721 5719 5716 5714 5711 5708 5705 5702 5699 5696 5692 5689 5686 5684 5681
5694 5695 5703 5727 5738 5740 5715 5718 5736 5736 5734 5733 5731 5732 5738 5743 5743 5743 5743 5742 5741 5738 5735 5733 5731 5728 5723 5719 5715 5714 5713 5709 5706 5704 5701 5698 5695 5691 5688 5684 5681 5678 5676 5673
5684 5687 5696 5726 5726 5719 5718 5727 5729 5729 5729 5727 5728 5730 5732 5734 5734 5733 5733 5733 5731 5728 5726 5724 5723 5719 5714 5711 5710 5707 5704 5701 5698 5695 5693 5691 5686 5683 5679 5676 5672 5670 5667 5664
5691 5695 5709 5717 5720 5723 5722 5721 5722 5722 5723 5723 5722 5722 5723 5723 5723 5723 5723 5722 5721 5718 5716 5715 5714 5711 5705 5703 5702 5699 5696 5692 5689 5686 5683 5681 5677 5674 5670 5666 5664 5661 5659 5656
5688 5698 5706 5710 5714 5717 5718 5717 5718 5718 5717 5716 5714 5714 5713 5712 5711 5712 5712 5711 5710 5708 5706 5705 5704 5701 5698 5695 5693 5691 5687 5683 5680 5676 5673 5670 5668 5665 5661 5658 5655 5653 5651 5648
5681 5692 5699 5705 5707 5709 5711 5712 5711 5711 5710 5709 5707 5705 5704 5703 5702 5702 5702 5701 5699 5698 5696 5695 5693 5691 5690 5687 5683 5681 5678 5674 5670 5667 5663 5660 5658 5655 5653 5651 5648 5645 5643 5641
5677 5687 5687 5693 5701 5703 5702 5702 5702 5701 5700 5701 5700 5697 5696 5695 5695 5695 5693 5692 5690 5689 5687 5685 5683 5682 5681 5678 5675 5672 5668 5665 5661 5658 5654 5652 5649 5647 5645 5643 5641 5638 5636 5634
5683 5687 5686 5690 5693 5695 5695 5695 5696 5694 5693 5691 5691 5690 5689 5687 5687 5687 5685 5684 5682 5680 5679 5677 5675 5673 5672 5670 5666 5663 5659 5656 5653 5649 5646 5644 5641 5638 5636 5634 5632 5630 5628 5626
5679 5680 5679 5682 5684 5687 5687 5688 5687 5686 5685 5684 5682 5681 5680 5679 5679 5678 5677 5676 5675 5673 5670 5668 5666 5664 5664 5661 5658 5655 5651 5648 5645 5641 5639 5636 5633 5631 5628 5626 5624 5622 5620 5617
5674 5675 5675 5676 5677 5677 5678 5677 5676 5675 5675 5674 5674 5673 5671 5670 5669 5670 5669 5668 5666 5664 5662 5660 5658 5656 5655 5653 5650 5645 5642 5640 5637 5634 5631 5628 5625 5622 5620 5618 5616 5613 5611 5609
5666 5667 5667 5666 5666 5667 5668 5668 5666 5665 5666 5666 5665 5664 5664 5663 5661 5660 5659 5659 5657 5655 5654 5652 5650 5649 5647 5644 5641 5638 5635 5632 5629 5626 5622 5619 5616 5613 5611 5609 5607 5605 5603 5601
5656 5656 5656 5655 5656 5658 5659 5659 5659 5658 5658 5657 5657 5657 5656 5655 5654 5652 5651 5650 5649 5648 5646 5644 5643 5642 5639 5637 5633 5630 5627 5624 5621 5618 5614 5611 5609 5607 5604 5602 5600 5598 5596 5594
5653 5653 5652 5651 5649 5649 5650 5651 5651 5650 5650 5651 5650 5648 5647 5646 5645 5645 5643 5642 5640 5639 5638 5637 5636 5634 5632 5629 5626 5623 5620 5617 5614 5610 5608 5606 5603 5600 5598 5596 5594 5592 5589 5587
5646 5645 5645 5645 5644 5643 5642 5643 5643 5643 5643 5643 5641 5639 5638 5637 5636 5635 5634 5633 5632 5630 5631 5630 5629 5627 5625 5623 5620 5616 5613 5610 5607 5604 5602 5599 5596 5594 5592 5590 5588 5586 5583 5580
5637 5638 5638 5638 5637 5636 5636 5636 5636 5635 5636 5635 5633 5631 5629 5629 5627 5626 5626 5624 5624 5623 5624 5623 5621 5619 5618 5616 5613 5610 5607 5604 5601 5598 5596 5594 5591 5589 5586 5583 5581 5579 5576 5574
5629 5629 5630 5629 5629 5629 5629 5629 5629 5628 5628 5627 5625 5623 5622 5621 5620 5619 5618 5617 5618 5618 5617 5616 5614 5612 5611 5608 5606 5603 5600 5598 5596 5593 5590 5588 5585 5583 5580 5577 5575 5573 5571 5568
5621 5621 5622 5622 5622 5621 5621 5622 5622 5621 5621 5620 5619 5617 5615 5614 5613 5611 5611 5610 5611 5611 5610 5609 5607 5605 5603 5602 5599 5597 5595 5592 5590 5587 5584 5582 5579 5577 5574 5572 5569 5567 5565 5562
5614 5614 5615 5615 5614 5614 5614 5614 5614 5614 5613 5612 5612 5611 5609 5607 5606 5605 5604 5604 5604 5604 5603 5602 5600 5598 5596 5595 5593 5590 5588 5586 5584 5581 5578 5576 5574 5571 5568 5566 5564 5561 5559 5557
5609 5609 5608 5608 5608 5607 5606 5606 5606 5607 5606 5606 5605 5605 5603 5601 5600 5599 5599 5598 5597 5596 5595 5593 5592 5591 5589 5587 5585 5583 5581 5579 5577 5575 5572 5570 5568 5565 5563 5560 5558 5556 5554 5552
5603 5603 5603 5602 5601 5600 5600 5599 5599 5599 5599 5598 5598 5598 5597 5595 5594 5593 5592 5591 5590 5589 5587 5585 5584 5583 5582 5580 5578 5576 5574 5572 5570 5567 5565 5563 5561 5559 5556 5554 5552 5550 5548 5546
5596 5595 5595 5595 5595 5594 5593 5593 5592 5593 5592 5591 5591 5591 5590 5589 5587 5586 5585 5584 5583 5581 5580 5578 5577 5576 5574 5572 5570 5568 5567 5565 5562 5560 5558 5555 5553 5551 5549 5547 5545 5543 5542 5540
5589 5589 5588 5588 5588 5588 5588 5587 5587 5588 5587 5587 5585 5585 5584 5582 5581 5580 5579 5578 5576 5575 5573 5572 5570 5569 5567 5565 5563 5561 5559 5557 5554 5551 5549 5547 5545 5544 5542 5541 5539 5538 5536 5534